This is the latest recevied weather packets stored in our database for station/object VK4AB-13. If no packets are shown the sender has not sent any weather packets the latest 10 day(s).
| Time | Temp. | Humidity | Pressure | Rain* | Wind** | Luminosity | Snow |
|---|---|---|---|---|---|---|---|
| 1778223821 | 22.22° C | 29% | 1016.3 hPa | 0 mm | - | 9 W/m² | - |
| 1778223521 | 22.78° C | 29% | 1016.3 hPa | 0 mm | - | 11 W/m² | - |
| 1778223221 | 22.78° C | 28% | 1016.3 hPa | 0 mm | - | 12 W/m² | - |
| 1778222921 | 22.78° C | 28% | 1016.2 hPa | 0 mm | - | 21 W/m² | - |
| 1778222621 | 23.33° C | 27% | 1016.1 hPa | 0 mm | - | 49 W/m² | - |
| 1778222321 | 23.33° C | 26% | 1016.2 hPa | 0 mm | - | 63 W/m² | - |
| 1778222021 | 23.33° C | 27% | 1016.1 hPa | 0 mm | - | 81 W/m² | - |
| 1778221721 | 23.89° C | 26% | 1016.1 hPa | 0 mm | - | 98 W/m² | - |
| 1778221421 | 23.89° C | 26% | 1015.9 hPa | 0 mm | - | 120 W/m² | - |
| 1778221121 | 23.89° C | 26% | 1016 hPa | 0 mm | - | 142 W/m² | - |
| 1778220821 | 23.89° C | 27% | 1016 hPa | 0 mm | - | 167 W/m² | - |
| 1778220521 | 23.89° C | 25% | 1015.9 hPa | 0 mm | - | 185 W/m² | - |
| 1778220221 | 23.89° C | 24% | 1016 hPa | 0 mm | - | 200 W/m² | - |
| 1778219921 | 23.89° C | 24% | 1016 hPa | 0 mm | - | 202 W/m² | - |
| 1778219621 | 23.89° C | 23% | 1016 hPa | 0 mm | - | 251 W/m² | - |
| 1778219321 | 23.89° C | 22% | 1016 hPa | 0 mm | - | 271 W/m² | - |
| 1778219021 | 24.44° C | 21% | 1016 hPa | 0 mm | - | 141 W/m² | - |
| 1778218721 | 24.44° C | 21% | 1016.1 hPa | 0 mm | - | 272 W/m² | - |
| 1778218421 | 24.44° C | 21% | 1016.2 hPa | 0 mm | - | 318 W/m² | - |
| 1778218121 | 24.44° C | 21% | 1016.2 hPa | 0 mm | - | 330 W/m² | - |
| 1778217821 | 24.44° C | 20% | 1016.2 hPa | 0 mm | - | 352 W/m² | - |
| 1778217521 | 24.44° C | 20% | 1016.2 hPa | 0 mm | - | 318 W/m² | - |
| 1778217221 | 24.44° C | 19% | 1016.3 hPa | 0 mm | - | 390 W/m² | - |
| 1778216921 | 24.44° C | 19% | 1016.3 hPa | 0 mm | - | 399 W/m² | - |
| 1778216621 | 24.44° C | 19% | 1016.3 hPa | 0 mm | - | 411 W/m² | - |
* Rain latest hour (hover to see other rain measurements)
** Current wind speed in m/s (hover to see current wind gust speed)